Regional Weather Roundup
Issued by NWS Boston, MA

Home | Current Version | Previous Version | Text Only | Print | Product List | Glossary On
Versions: 1 2 3 4 5 6 7 8 9 10 11 12 13 14 15 16 17 18 19 20 21 22 23 24 25 26 27 28 29 30 31 32 33 34 35 36 37 38 39 40 41 42 43 44 45 46 47 48 49 50
000
ASUS41 KBOX 171610
RWRBOX

REGIONAL WEATHER ROUNDUP
NATIONAL WEATHER SERVICE TAUNTON MA
1200 PM EDT THU AUG 17 2017

NOTE:  "FAIR" INDICATES FEW OR NO CLOUDS BELOW 12,000 FEET WITH NO
SIGNIFICANT WEATHER AND/OR OBSTRUCTIONS TO VISIBILITY.

MAZALL-171700-
EASTERN MASSACHUSETTS

CITY           SKY/WX    TMP DP  RH WIND       PRES   REMARKS
BOSTON         MOSUNNY   75  49  39 S6        30.04F
BEVERLY        MOSUNNY   77  51  40 VRB7      30.03F
LAWRENCE       MOSUNNY   77  51  40 W7        30.05F
BEDFORD        SUNNY     75  48  38 W7        30.04F
BLUE HILL        N/A     75  49  39 W8        30.06F
NORWOOD        MOSUNNY   77  51  40 VRB5      30.05F
MARSHFIELD     MOSUNNY   75  52  43 VRB6G13   30.04F
PLYMOUTH       MOSUNNY   76  44  32 VRB6      30.05F
TAUNTON        MOSUNNY   77  49  37 MISG      30.05F
NEW BEDFORD    MOSUNNY   78  49  35 CALM      30.05F
$$

MAZALL-171700-
CAPE COD AND THE ISLANDS

CITY           SKY/WX    TMP DP  RH WIND       PRES   REMARKS
FALMOUTH       PTSUNNY   75  52  43 N5        30.06F
HYANNIS        PTSUNNY   74  56  53 N7        30.04F
CHATHAM        MOSUNNY   76  58  53 VRB5      30.06F
PROVINCETOWN   MOSUNNY   70  56  61 NW8       30.06F
NANTUCKET      MOSUNNY   72  58  61 SE10      30.05F
MARTHAS VNYRD  NOT AVBL
$$

MAZALL-171700-
CENTRAL AND WESTERN MASSACHUSETTS

CITY           SKY/WX    TMP DP  RH WIND       PRES   REMARKS
WORCESTER      SUNNY     71  41  33 SW6       30.08F
FITCHBURG      SUNNY     77  52  41 NW5       30.06F
ORANGE         SUNNY     73  51  46 CALM      30.07F
SPRINGFIELD    MOSUNNY   74  43  33 NW6       30.06F
WESTFIELD      SUNNY     74  49  41 CALM      30.07F
NORTH ADAMS    SUNNY     72  51  47 VRB3      30.08F
PITTSFIELD     SUNNY     72  46  39 W3        30.08F
$$

RIZALL-171700-
RHODE ISLAND

CITY           SKY/WX    TMP DP  RH WIND       PRES   REMARKS
PROVIDENCE     PTSUNNY   77  50  38 VRB5      30.07F
NEWPORT        SUNNY     75  53  46 W3        30.06F
BLOCK ISLAND   SUNNY     71  52  50 E8        30.08F
WESTERLY       SUNNY     75  55  49 S8        30.07F
$$

CTZALL-171700-
CONNECTICUT

CITY           SKY/WX    TMP DP  RH WIND       PRES   REMARKS
BRADLEY INTL   PTSUNNY   75  50  41 S3        30.08F
HARTFORD       SUNNY     75  55  49 E3        30.06F
BRIDGEPORT     SUNNY     73  56  54 E9        30.07F
DANBURY        PTSUNNY   75  56  51 NE3       30.08F
GROTON         SUNNY     75  56  51 S7        30.06S
NEW HAVEN      SUNNY     74  56  53 S8        30.08S
CHESTER        NOT AVBL
MERIDEN        SUNNY     76  51  41 CALM      30.07S
WILLIMANTIC    SUNNY     76  49  38 NE3       30.07F
OXFORD         SUNNY     74  55  51 CALM      30.10S
$$

MEZ002-015-021-024-NHZ003-005-008-011-012-014-VTZ005-008-171700-
NORTHERN NEW ENGLAND

CITY           SKY/WX    TMP DP  RH WIND       PRES   REMARKS
PORTLAND ME    PTSUNNY   75  50  41 VRB6G20   29.99F
BANGOR ME      MOSUNNY   74  43  32 W13G23    29.93F
CONCORD NH     MOSUNNY   77  52  41 NW12      30.04F
MANCHESTER NH  PTSUNNY   77  48  35 NW10      30.02F
NASHUA NH      MOSUNNY   76  52  43 VRB3      30.04F
PORTSMOUTH NH  PTSUNNY   78  50  38 NW13      30.00F
JAFFREY NH     MOSUNNY   74  50  42 VRB3      30.08F
KEENE NH         N/A    N/A N/A N/A MISG        N/A
BURLINGTON VT  MOSUNNY   74  53  48 VRB6      30.05F
MT. WASHINGTON FOG       43  43 100 NW39G54     N/A  VSB 0   WCI  31
$$

NYZ052-076-171700-
EASTERN NEW YORK

CITY           SKY/WX    TMP DP  RH WIND       PRES   REMARKS
ALBANY         MOSUNNY   72  50  45 CALM      30.07F
NEW YORK CITY  MOSUNNY   77  64  64 NE9       30.05F
$$

ANZALL-171700-
MARINE OBSERVATIONS

STATION/POSITION TIME  TEMP    WIND        PRES    VSBY  WAVE
                       AIR SEA DIR/SP/G                  HT/PER
                 (UTC) (F)     (DEG/KT/KT) (MB)    (MI)  (FT/S)
BOSTON BUOY      1550   68 68  240/  6/  8 1017.2F         1/10
BUZZARDS BAY     1500   68      70/  2/  3 1018.8R
NANTUCKET SOUND  1550   69 71     CALM     1017.8F         1
MASS BAY-STELLWA 1504   67 68  240/ 12/ 12 1016.9F         2/11
ISLE OF SHOALS   1500   64     240/  9/ 10 1016.7F
S OF BLOCK IS    NOT AVBL
$$

......................KEY.........................
  SKY/WX - SKY CONDITION/PRESENT WEATHER
  TMP    - TEMPERATURE IN FAHRENHEIT
  DWPT   - DEWPOINT IN FAHRENHEIT
  RH     - RELATIVE HUMIDITY IN PERCENT
  WIND   - DIRECTION AND SPEED IN MPH
  PRES   - MEAN SEA LEVEL PRESSURE IN INCHES OF HG
  WCI    - WIND CHILL INDEX
  VSB    - VISIBILITY IN MILES
  HX     - HEAT INDEX
  TC     - TEMPERATURE IN CELSIUS
  VRB    - VARIABLE WIND DIRECTION
  N/A    - NOT AVAILABLE



USA.gov is the U.S. government's official web portal to all federal, state and local government web resources and services.